Location: Lafig�re
(44.4503°N, 4.0357°E)
Time: 06:45:12
(UTC+00:00)

Cosmos 1125 Rocket - Pass Details

Date: 26 January 2021
Orbit: 757 x 780 km, 74.0° (Epoch: 06 March)

Event Time Altitude Azimuth Distance (km) Brightness Sun altitude
Exits shadow 03:57:18 - 9° (N) 2,419 6.2 -34.1°
Reaches altitude 10° 03:57:39 10° 12° (NNE) 2,338 6.2 -34.0°
Maximum altitude 04:00:58 17° 51° (NE) 1,920 6.1 -33.4°
Drops below altitude 10° 04:04:18 10° 90° (E) 2,335 6.8 -32.8°
Sets 04:07:35 0° 111° (ESE) 3,259 7.6 -32.2°
